CAPE
0 0 0 0 0 0 0 0 0 0 0 0 0 0 0 0 0 0 0 0 0 0 0 0 0 0 0 0 0 0 0 0 0 0 0 0 0 0 0 0 0 0 0 0 0
0 0 0 0 0 0 0 0 0 0 0 0 0 0 0 0 0 0 0 0 0 0 0 0 0 0 0 0 0 0 0 0 0 0 0 0 0 0 0 0 0 0 0 0 0
0 0 0 0 0 0 0 0 0 0 0 0 0 0 0 0 0 0 0 0 0 0 0 0 0 0 0 0 0 0 0 0 0 0 0 0 0 0 0 0 0 0 0 0 0
0 0 0 0 0 0 0 0 0 0 0 0 0 0 0 0 0 0 0 0 0 0 0 0 0 0 0 0 0 0 0 0 0 0 0 0 0 0 0 0 0 0 0 0 0
0 0 0 0 0 0 0 0 0 0 0 0 0 0 0 0 0 0 0 0 0 0 0 0 0 0 0 0 0 0 0 0 0 0 0 0 0 0 0 0 0 0 0 0 0
0 0 0 0 0 0 0 0 0 0 0 0 0 0 0 0 0 0 0 0 0 0 0 0 0 0 0 0 0 0 0 0 0 0 0 0 0 0 0 0 0 0 0 0 0
0 0 0 0 0 0 0 0 0 0 0 0 0 0 0 0 0 0 0 0 0 0 0 0 0 0 0 0 0 0 0 0 0 0 0 0 0 0 0 0 0 0 0 0 0
0 0 0 0 0 0 0 0 1 0 0 0 0 0 0 0 0 0 0 0 0 0 0 0 0 0 0 0 0 0 0 0 0 0 0 0 0 0 0 0 0 0 0 0 0
0 0 0 0 0 0 0 0 0 0 0 0 0 0 0 0 0 0 0 0 0 0 0 0 0 0 0 0 0 0 0 0 0 0 0 0 0 0 0 0 0 0 0 0 0
0 0 0 0 0 0 0 0 0 0 0 0 0 0 0 0 0 0 0 0 0 0 0 0 0 0 0 0 0 0 0 0 0 0 0 0 0 0 0 0 0 0 0 0 0
1 0 0 0 0 0 1 0 0 0 1 0 0 0 0 0 0 0 0 0 0 0 0 0 0 0 0 0 0 0 0 0 0 0 0 0 0 0 0 0 0 0 0 0 0
1 0 0 0 0 0 0 0 0 0 0 0 0 0 0 0 0 0 0 0 0 0 0 0 0 0 0 0 0 0 0 0 0 0 0 0 0 0 0 0 0 0 0 0 0
15 1 0 0 0 0 0 0 0 0 0 0 0 0 0 0 0 0 0 0 0 0 0 0 0 0 0 0 0 0 0 0 0 0 0 0 0 0 0 0 0 0 0 0 0
2 1 0 0 0 1 6 2 8 0 5 0 0 0 0 0 0 0 0 0 0 0 0 0 0 0 0 0 0 0 0 0 0 0 0 0 0 0 0 0 0 0 0 0 0
0 1 0 0 4 7 0 12 0 10 4 0 0 0 0 0 0 0 0 0 0 0 0 0 0 0 0 0 0 0 0 0 0 0 0 0 0 0 0 0 0 0 0 0 0
11 8 1 0 16 2 2 0 0 6 0 2 0 0 0 0 0 0 0 0 0 0 0 0 0 0 0 0 0 0 0 0 0 0 0 0 0 0 0 0 0 0 0 0 0
1 9 1 1 5 24 0 0 0 0 2 1 0 0 0 0 0 0 0 0 0 0 0 0 0 0 0 0 0 0 0 0 0 0 0 0 0 0 0 0 0 0 0 0 0
5 1 1 0 0 0 0 6 0 0 1 0 0 0 0 0 0 0 0 0 0 0 0 0 0 0 0 0 0 0 0 0 0 0 0 0 0 0 0 0 0 0 0 0 0
25 10 7 2 1 0 1 0 0 0 0 0 0 0 0 0 0 0 0 0 0 0 0 0 0 0 0 0 0 0 0 0 0 0 0 0 0 0 0 0 0 0 0 0 0
41 15 9 1 1 1 1 0 0 0 0 0 0 0 0 0 0 0 0 0 0 0 0 0 0 0 0 0 0 0 0 0 0 0 0 0 0 0 0 0 0 0 0 0 0
51 23 1 2 0 1 0 0 0 0 0 0 0 0 0 0 0 0 0 0 0 0 0 0 0 0 0 0 0 0 0 0 0 1 1 0 0 0 0 0 0 0 0 0 0
31 0 2 0 0 0 1 0 0 1 0 0 0 0 0 0 0 0 0 0 0 0 0 0 0 0 0 0 0 0 0 0 1 0 0 0 0 0 0 0 0 0 0 0 0
1 0 12 0 0 1 0 0 0 1 0 1 0 0 0 0 0 0 0 0 0 0 0 0 0 0 0 0 0 0 0 1 0 0 0 0 0 0 0 0 0 0 0 0 0
0 0 0 1 1 0 0 2 0 1 1 1 1 1 0 0 0 0 2 0 0 0 0 0 0 0 0 0 0 0 1 3 0 0 0 0 0 0 0 0 0 0 0 0 0
1 0 0 1 0 0 0 0 1 0 0 2 0 0 0 0 1 0 2 3 0 1 0 0 0 0 0 0 0 0 0 0 5 0 0 0 0 0 0 0 0 0 0 0 1
0 0 0 1 2 1 0 2 1 0 0 0 0 0 1 1 0 0 0 0 0 5 4 1 0 0 0 0 0 0 0 0 0 0 0 0 0 0 0 0 0 0 0 0 0
6 0 0 0 6 1 1 1 1 0 0 0 0 0 0 0 1 1 0 0 0 0 0 4 0 0 0 0 0 0 0 0 0 0 0 0 0 0 0 0 0 0 0 1 21
CIN
-0 -0 -0 -0 -0 -0 -0 -0 -0 -0 -0 -0 -0 -0 -0 -0 -0 -0 -0 -0 -0 -0 -0 -0 -0 -0 -0 -0 -0 -0 -0 -0 -0 -0 -0 -0 -0 -0 -0 -0 -0 -0 -0 -0 -0
-0 -0 -0 -0 -0 -0 -0 -0 -0 -0 -0 -0 -0 -0 -0 -0 -0 -0 -0 -0 -0 -0 -0 -0 -0 -0 -0 -0 -0 -0 -0 -0 -0 -0 -0 -0 -0 -0 -0 -0 -0 -0 -0 -0 -0
-0 -0 -0 -0 -0 -0 -0 -0 -0 -0 -0 -0 -0 -0 -0 -0 -0 -0 -0 -0 -0 -0 -0 -0 -0 -0 -0 -0 -0 -0 -0 -0 -0 -0 -0 -0 -0 -0 -0 -0 -0 -0 -0 -0 -0
-0 -0 -0 -0 -0 -0 -0 -0 -0 -0 -0 -0 -0 -0 -0 -0 -0 -0 -0 -0 -0 -0 -0 -0 -0 -0 -0 -0 -0 -0 -0 -0 -0 -0 -0 -0 -0 -0 -0 -0 -0 -0 -0 -0 -0
-0 -0 -0 -0 -0 -0 -0 -0 -0 -0 -0 -0 -0 -0 -0 -0 -0 -0 -0 -0 -0 -0 -0 -0 -0 -0 -0 -0 -0 -0 -0 -0 -0 -0 -0 -0 -0 -0 -0 -0 -0 -0 -0 -0 -0
-0 -0 -0 -0 -0 -0 -0 -0 -0 -0 -0 -0 -0 -0 -0 -0 -0 -0 -0 -0 -0 -0 -0 -0 -0 -0 -0 -0 -0 -0 -0 -0 -0 -0 -0 -0 -0 -0 -0 -0 -0 -0 -0 -0 -0
-0 -0 -0 -0 -0 -0 -0 -0 -0 -0 -0 -0 -0 -0 -0 -0 -0 -0 -0 -0 -0 -0 -0 -0 -0 -0 -0 -0 -0 -0 -0 -0 -0 -0 -0 -0 -0 -0 -0 -0 -0 -0 -0 -0 -0
-0 -0 -0 -0 -0 -0 -0 -0 -7 -0 -0 -0 -0 -0 -0 -0 -0 -0 -0 -0 -0 -0 -0 -0 -0 -0 -0 -0 -0 -0 -0 -0 -0 -0 -0 -0 -0 -0 -0 -0 -0 -0 -0 -0 -0
-0 -0 -0 -0 -0 -0 -0 -6 -0 -0 -0 -0 -0 -0 -0 -0 -0 -0 -0 -0 -0 -0 -0 -0 -0 -0 -0 -0 -0 -0 -0 -0 -0 -0 -0 -0 -0 -0 -0 -0 -0 -0 -0 -0 -0
-0 -0 -0 -0 -0 -0 -0 -0 -0 -0 -0 -0 -0 -0 -0 -0 -0 -0 -0 -0 -0 -0 -0 -0 -0 -0 -0 -0 -0 -0 -0 -0 -0 -0 -0 -0 -0 -0 -0 -0 -0 -0 -0 -0 -0
-0 -0 -0 -0 -0 -0 -0 -0 -0 -0 -0 -0 -0 -0 -0 -0 -0 -0 -0 -0 -0 -0 -0 -0 -0 -0 -0 -0 -0 -0 -0 -0 -0 -0 -0 -0 -0 -0 -0 -0 -0 -0 -0 -0 -0
-0 -0 -0 -0 -0 -0 -0 -0 -0 -0 -0 -0 -0 -0 -0 -0 -0 -0 -0 -0 -0 -0 -0 -0 -0 -0 -0 -0 -0 -0 -0 -0 -0 -0 -0 -0 -0 -0 -0 -0 -0 -0 -0 -0 -0
-0 -0 -0 -0 -0 -0 -0 -0 -0 -0 -0 -0 -0 -0 -0 -0 -0 -0 -0 -0 -0 -0 -0 -0 -0 -0 -0 -0 -0 -0 -0 -0 -0 -0 -0 -0 -0 -0 -0 -0 -0 -0 -0 -0 -0
-0 -0 -0 -0 -0 -0 -0 -0 -1 -0 -1 -0 -0 -0 -0 -0 -0 -0 -0 -0 -0 -0 -0 -0 -0 -0 -0 -0 -0 -0 -0 -0 -0 -0 -0 -0 -0 -0 -0 -0 -0 -0 -0 -0 -0
-0 -0 -0 -0 -0 -0 -0 -1 -0 -30 -0 -0 -0 -0 -0 -0 -0 -0 -0 -0 -0 -0 -0 -0 -0 -0 -0 -0 -0 -0 -0 -0 -0 -0 -0 -0 -0 -0 -0 -0 -0 -0 -0 -0 -0
-1 -0 -0 -0 -3 -1 -3 -0 -0 -15 -0 -0 -0 -0 -0 -0 -0 -0 -0 -0 -0 -0 -0 -0 -0 -0 -0 -0 -0 -0 -0 -0 -0 -0 -0 -0 -0 -0 -0 -0 -0 -0 -0 -0 -0
-1 -5 -0 -0 -0 -5 -0 -0 -0 -0 -1 -0 -0 -0 -0 -0 -0 -0 -0 -0 -0 -0 -0 -0 -0 -0 -0 -0 -0 -0 -0 -0 -0 -0 -0 -0 -0 -0 -0 -0 -0 -0 -0 -0 -0
-0 -0 -0 -0 -0 -0 -0 -0 -0 -0 -0 -0 -0 -0 -0 -0 -0 -0 -0 -0 -0 -0 -0 -0 -0 -0 -0 -0 -0 -0 -0 -0 -0 -0 -0 -0 -0 -0 -0 -0 -0 -0 -0 -0 -0
-0 -0 -0 -0 -0 -0 -0 -0 -0 -0 -0 -0 -0 -0 -0 -0 -0 -0 -0 -0 -0 -0 -0 -0 -0 -0 -0 -0 -0 -0 -0 -0 -0 -0 -0 -0 -0 -0 -0 -0 -0 -0 -0 -0 -0
-0 -0 -0 -0 -0 -0 -0 -0 -0 -1 -0 -0 -0 -0 -0 -0 -0 -0 -0 -0 -0 -0 -0 -0 -0 -0 -0 -0 -0 -0 -0 -0 -0 -0 -0 -0 -0 -0 -0 -0 -0 -0 -0 -0 -0
-0 -0 -1 -0 -0 -0 -0 -0 -0 -0 -0 -0 -0 -0 -0 -0 -0 -0 -0 -0 -0 -0 -0 -0 -0 -0 -0 -0 -0 -0 -0 -0 -0 -1 -0 -0 -0 -0 -0 -0 -0 -0 -0 -0 -0
-0 -0 -0 -0 -0 -0 -0 -0 -0 -0 -0 -0 -0 -1 -0 -0 -0 -0 -0 -0 -0 -0 -0 -0 -0 -0 -0 -0 -0 -0 -0 -0 -0 -0 -0 -0 -0 -0 -0 -0 -0 -0 -0 -0 -0
-4 -0 -0 -0 -0 -0 -0 -0 -0 -0 -0 -0 -0 -0 -0 -0 -0 -0 -0 -0 -0 -0 -0 -0 -0 -0 -0 -0 -0 -0 -0 -0 -0 -0 -0 -0 -0 -0 -0 -0 -0 -0 -0 -0 -0
-0 -0 -0 -0 -0 -0 -0 -0 -0 -0 -0 -0 -0 -0 -0 -0 -0 -0 -0 -1 -0 -0 -0 -0 -0 -0 -0 -0 -0 -0 -0 -1 -0 -0 -0 -0 -0 -0 -0 -0 -0 -0 -0 -0 -0
-0 -0 -0 -0 -0 -0 -0 -0 -0 -0 -0 -0 -0 -0 -0 -0 -0 -0 -0 -0 -1 -0 -0 -0 -0 -0 -0 -0 -0 -0 -0 -0 -3 -0 -0 -0 -4 -0 -0 -0 -0 -0 -0 -0 -5
-0 -0 -0 -0 -0 -0 -0 -0 -0 -0 -0 -0 -0 -0 -0 -0 -0 -0 -0 -0 -0 -1 -0 -2 -0 -0 -0 -0 -0 -0 -0 -0 -0 -0 -0 -0 -0 -0 -0 -0 -0 -0 -0 -0 -0
-0 -0 -1 -0 -0 -0 -0 -0 -0 -0 -0 -0 -0 -0 -0 -0 -0 -0 -0 -0 -0 -0 -0 -0 -0 -0 -0 -0 -0 -0 -0 -0 -0 -0 -0 -0 -0 -0 -0 -0 -0 -0 -0 -2 -4
Wind_Speed
33 32 31 30 30 30 29 28 27 26 27 27 29 30 31 31 33 30 27 20 18 17 16 15 13 15 15 18 16 18 25 27 29 32 33 27 32 30 30 33 28 29 27 25 21
36 35 33 31 30 29 29 28 28 27 27 28 30 30 31 31 31 32 20 16 17 17 16 16 16 19 19 19 17 19 27 29 29 33 35 35 36 36 36 33 32 29 19 14 11
37 36 35 33 31 29 28 28 27 28 28 29 30 30 30 30 31 20 14 12 14 17 16 17 19 21 25 23 21 24 30 34 35 37 34 37 34 30 31 17 30 29 27 24 23
39 37 35 34 33 31 29 27 27 27 29 29 30 29 29 25 24 15 11 10 13 18 18 19 22 24 27 29 25 30 29 33 36 34 35 33 35 35 31 29 31 26 27 22 20
40 38 36 35 33 31 30 28 27 27 28 28 28 28 26 26 27 13 13 15 18 19 23 25 29 32 34 32 31 33 34 33 34 30 31 31 31 33 27 31 29 28 25 24 19
41 40 37 35 34 32 29 29 28 27 27 26 26 26 26 34 20 16 19 20 22 23 26 27 29 30 36 33 30 30 37 34 34 33 33 31 29 30 27 28 26 22 25 23 23
42 40 39 36 34 32 30 28 27 27 25 25 25 25 31 30 21 20 21 24 23 24 26 24 25 24 26 30 29 32 38 36 31 31 31 28 31 23 23 13 20 21 19 21 21
45 40 38 36 33 31 28 26 26 25 24 25 25 27 38 26 28 29 26 27 26 27 28 26 25 28 30 29 31 32 36 38 30 18 21 25 34 30 23 20 20 19 30 32 33
46 41 38 36 33 29 26 24 23 23 24 24 26 27 39 22 29 28 25 28 26 24 23 21 21 23 22 24 29 27 31 28 27 28 27 23 28 27 21 19 42 34 31 29 30
45 43 39 37 33 28 24 21 21 22 25 25 29 29 32 28 21 18 16 17 20 18 17 18 18 20 18 21 23 22 19 25 29 28 34 38 33 42 33 27 29 29 28 29 27
49 44 40 37 32 28 23 23 28 34 31 32 27 30 29 21 20 21 15 14 16 15 19 14 17 19 19 19 25 32 37 39 41 39 42 44 40 38 35 32 32 28 27 22 23
49 45 41 38 34 31 30 39 35 27 39 40 41 32 25 21 24 21 15 19 20 26 21 17 22 20 21 23 26 26 31 36 42 37 32 43 47 47 46 26 20 20 23 22 19
52 45 41 39 36 37 41 42 28 35 40 36 34 39 32 29 29 23 18 21 23 24 22 24 22 21 25 25 25 24 25 31 35 38 40 46 52 32 15 15 14 19 20 22 25
50 47 43 36 39 40 43 36 31 24 43 46 41 38 33 28 39 27 20 23 27 30 30 37 35 30 23 23 21 24 25 31 33 36 39 32 55 25 29 14 17 21 24 28 33
52 51 44 43 42 44 35 32 25 23 51 36 34 23 23 30 27 28 23 28 32 27 26 28 25 27 29 27 26 31 30 31 33 34 39 32 35 43 12 20 24 26 29 32 37
53 53 47 43 44 41 31 27 25 41 50 36 25 27 27 28 30 22 23 25 29 33 31 34 29 28 28 26 26 27 23 27 30 32 39 33 29 42 24 26 28 30 34 37 40
55 51 50 45 51 34 33 30 45 54 31 36 32 26 26 27 26 22 23 26 27 29 34 32 32 28 25 23 21 19 21 29 32 31 38 29 31 32 36 27 28 31 34 37 40
53 50 53 48 39 37 38 45 56 48 44 29 29 27 28 22 25 23 23 26 26 26 26 28 30 25 23 24 21 22 24 28 37 38 39 36 36 34 26 23 26 32 36 41 43
53 51 51 50 44 42 47 59 60 48 43 39 27 31 32 28 24 25 27 27 25 24 27 23 23 13 18 20 20 22 27 28 35 37 40 42 45 47 44 31 34 38 41 46 48
57 57 54 46 47 50 57 62 53 46 35 40 41 34 37 32 29 28 28 27 25 24 26 25 25 20 19 19 22 23 21 29 30 41 44 42 41 41 35 37 42 46 49 50 53
59 56 44 43 46 58 66 57 49 42 39 40 44 41 40 34 32 32 29 24 23 24 22 23 26 23 21 26 25 27 30 29 31 35 43 51 46 33 39 44 47 48 50 52 52
56 63 40 43 56 60 65 53 43 43 33 37 40 40 38 33 34 31 32 29 21 21 25 23 25 27 27 22 24 26 28 29 36 39 36 41 52 36 41 41 45 48 49 47 48
56 48 43 49 66 60 48 47 42 43 41 37 38 37 35 34 34 28 26 21 18 19 22 20 26 29 31 33 29 31 28 27 29 32 39 43 47 39 48 44 46 46 46 47 47
48 53 47 51 48 54 53 47 43 36 38 35 36 32 32 34 31 32 28 22 20 21 21 20 25 30 35 31 23 27 24 23 27 37 39 43 49 50 46 46 45 46 45 44 45
49 51 50 61 55 52 49 46 44 41 34 32 34 37 39 36 30 32 27 21 20 19 18 20 29 27 28 27 29 29 29 29 33 35 40 45 45 44 44 45 44 43 45 47 48
50 49 49 51 44 45 44 45 46 37 35 40 37 30 31 34 36 31 25 24 24 18 17 17 26 25 31 28 30 37 34 34 35 36 41 44 47 35 36 38 41 43 44 46 48
39 38 43 48 47 45 46 42 38 33 29 28 25 23 25 23 16 13 14 15 17 17 18 19 21 25 33 27 30 40 36 33 35 34 34 40 37 33 36 36 38 38 43 46 45
Wind_Direction
257 258 260 261 262 264 267 270 274 279 282 285 286 287 288 290 287 286 288 302 309 315 322 325 328 326 324 313 313 317 304 303 307 307 310 316 316 318 318 314 318 316 314 312 325
255 256 258 259 261 264 267 269 272 277 281 285 286 287 289 293 291 285 303 312 312 314 316 314 314 319 313 313 311 304 299 303 309 311 309 311 314 315 314 316 312 313 322 320 311
254 255 255 257 260 262 266 270 273 276 279 283 286 288 290 294 291 294 311 315 314 313 320 318 315 313 306 305 302 301 297 303 304 308 311 311 313 318 316 319 314 319 321 324 318
253 253 254 256 258 260 264 267 272 276 279 282 285 288 290 293 284 310 322 322 315 314 315 313 310 304 303 301 301 298 300 302 305 309 309 309 311 309 312 311 313 319 317 318 317
251 251 252 254 256 258 262 265 270 275 280 282 285 289 290 280 279 301 305 306 306 307 304 304 300 300 295 299 301 298 300 302 304 310 308 311 308 309 314 312 314 315 320 320 318
249 249 250 251 253 256 259 263 268 274 278 282 286 288 282 274 294 295 297 299 300 300 300 299 299 300 297 294 296 301 303 304 304 305 305 306 310 311 314 315 316 321 322 325 325
247 247 248 248 250 253 256 261 267 271 276 279 283 284 277 272 293 293 294 296 301 303 302 303 303 297 306 297 299 300 298 302 303 302 302 310 308 314 325 340 328 328 335 333 332
245 244 245 246 247 250 253 258 265 269 273 277 281 282 275 286 281 282 287 291 294 296 296 297 301 297 292 295 298 300 296 296 304 308 313 310 303 312 329 324 332 329 316 309 303
242 241 241 242 243 245 248 255 261 267 272 276 278 278 277 288 281 282 282 288 294 297 296 299 294 290 294 289 291 294 293 296 297 302 308 311 309 317 329 319 295 308 312 314 313
240 239 238 238 238 238 241 250 260 266 268 273 274 279 276 281 285 291 295 292 295 296 300 290 289 286 280 279 284 293 288 294 295 303 296 277 270 286 308 315 314 313 315 311 314
239 236 235 233 231 226 227 243 254 262 257 256 271 266 290 279 288 281 284 287 298 285 287 283 281 278 277 276 282 286 286 285 278 285 285 271 264 301 307 309 311 314 315 317 316
237 234 229 228 224 220 229 242 244 273 268 258 262 269 279 284 281 273 269 279 276 274 275 282 276 281 284 282 284 287 291 290 284 293 301 294 268 279 291 306 315 323 319 322 331
242 231 226 222 220 227 234 239 255 263 268 270 256 257 259 271 269 265 260 270 272 266 264 271 283 291 279 280 284 286 287 293 294 296 300 300 272 319 350 345 335 325 333 331 327
238 230 224 213 221 228 231 236 249 265 265 267 266 267 250 262 269 257 253 270 271 265 270 276 276 276 283 281 282 285 292 294 296 297 297 310 291 314 315 333 341 333 330 322 320
242 229 219 210 228 227 238 229 244 257 263 266 259 267 249 235 277 259 247 259 260 262 265 267 282 279 272 273 279 284 291 292 296 294 296 298 300 264 339 310 321 326 326 324 321
242 235 218 221 229 230 226 224 235 248 257 264 256 250 248 244 259 273 241 257 268 262 264 271 278 281 282 287 283 289 287 291 293 294 289 293 292 270 319 311 315 319 320 320 320
241 236 219 220 225 217 208 221 238 244 251 260 254 247 243 250 240 250 244 239 252 256 258 267 269 276 280 279 283 278 283 294 289 283 287 298 291 285 307 318 315 318 321 322 324
239 237 224 225 217 203 213 229 240 243 240 256 247 243 243 243 238 239 247 245 242 256 274 261 273 255 273 266 276 272 275 284 289 288 291 292 284 296 315 327 319 319 321 323 322
236 236 233 225 205 207 218 230 235 242 237 246 241 239 244 237 253 242 244 246 245 251 262 257 273 272 278 276 276 278 279 291 290 292 291 289 291 295 298 300 311 317 318 319 319
231 233 233 218 204 214 225 233 241 238 242 234 237 239 242 232 247 240 242 250 248 247 267 269 271 271 278 282 282 284 292 289 289 289 289 290 294 299 307 312 313 313 314 317 318
226 231 231 208 208 221 227 236 241 241 240 234 238 244 245 234 243 239 244 260 251 253 260 265 272 266 273 273 273 279 280 287 290 287 292 292 292 308 309 311 312 313 315 316 317
224 229 222 201 219 226 228 235 240 235 238 243 247 246 242 237 243 242 247 258 252 253 253 271 274 265 271 288 286 288 287 288 284 289 290 292 291 308 311 315 315 314 315 316 317
222 226 218 208 221 224 230 234 239 233 234 238 242 244 245 240 248 246 253 259 253 254 257 261 273 266 279 287 283 283 285 285 289 292 287 290 295 308 311 313 313 314 316 317 320
216 218 216 219 230 222 224 230 233 236 238 241 241 237 235 242 254 246 251 257 259 266 272 270 270 269 273 284 289 283 285 283 285 287 292 288 297 304 310 313 315 316 318 320 320
217 221 216 213 221 220 223 228 221 231 241 237 243 235 233 245 247 249 248 247 258 266 267 272 271 273 279 286 288 288 287 285 283 286 289 298 299 306 311 314 317 320 320 320 320
215 213 215 212 214 214 225 225 222 232 236 239 236 227 234 241 249 237 236 245 259 256 259 272 276 281 282 286 288 288 288 289 288 290 290 297 301 309 313 319 320 321 322 320 320
211 212 210 212 211 218 227 222 221 224 250 236 220 227 234 243 230 224 239 248 257 245 258 268 278 284 287 290 292 291 291 289 292 293 295 297 306 315 316 319 323 323 323 322 324